RH
46 49 56 58 55 50 43 46 46 44 42 41 38 36 35 37 37 36 35 37 39 40 39 36 33 27 21 18 17 17 18 19 19 19 19 18 16 14 12 11 10 9 9 9 9 10 10 10 10 10 10 10 10 10 10 10 10 10 10 10 10 10 10 11 12 13 14 15 17 19 22 21 21 23 26 26 25 26 27 28 29 28 27 25 24 24 24 23 23 23 23 24 24 25 25 25 23 22 21 21 21 21 19
46 48 54 56 55 50 43 47 48 46 42 40 37 35 35 37 37 37 36 40 42 43 41 37 31 25 19 18 17 18 19 19 20 20 19 18 16 13 11 10 9 9 9 10 10 10 10 10 10 10 10 10 10 10 10 10 10 10 10 10 10 10 11 12 12 13 14 15 18 21 24 22 23 24 27 27 26 25 25 27 27 26 25 24 24 24 24 24 24 23 23 23 22 22 23 22 21 21 21 21 20 19 18
46 46 48 52 52 48 42 46 48 47 43 41 39 37 36 37 38 38 38 41 44 45 43 38 31 24 19 19 19 20 20 21 21 20 20 18 15 13 11 10 10 10 10 11 11 11 11 11 11 11 10 10 10 10 10 10 10 10 10 10 10 11 12 13 13 13 14 15 18 21 24 23 23 24 27 28 27 25 23 24 24 24 23 24 24 25 26 26 26 25 23 23 22 21 20 20 20 20 21 21 20 20 18
46 45 43 47 47 44 40 45 47 46 44 42 41 39 38 38 39 40 41 44 45 46 44 37 30 24 20 20 21 22 22 22 22 21 20 18 15 13 11 10 10 10 11 12 12 12 12 11 11 11 11 10 10 10 10 10 10 10 10 10 11 11 13 13 14 14 14 15 18 21 25 23 22 24 28 28 27 24 22 23 23 23 24 24 25 26 28 29 28 27 24 23 22 20 19 19 20 20 20 21 21 20 18
47 45 41 42 43 42 39 42 44 45 45 44 43 42 40 40 40 42 44 45 46 45 42 35 29 24 22 22 23 23 24 24 23 22 20 17 15 13 11 10 10 11 12 12 12 12 12 11 11 11 11 10 10 10 10 10 10 10 10 11 11 13 14 14 14 14 15 17 21 25 28 26 25 25 27 28 26 24 23 23 23 23 24 24 24 26 30 30 30 28 26 25 24 21 19 19 19 20 20 20 20 19 18
48 45 41 40 40 40 38 40 41 43 44 45 45 44 42 42 42 44 46 47 47 44 40 33 27 24 23 24 24 25 25 25 24 23 20 17 15 13 11 11 11 11 12 12 12 12 12 12 11 11 11 10 10 10 10 10 10 10 11 11 12 13 14 14 14 14 16 21 25 28 29 29 28 27 25 25 24 23 23 23 23 23 23 23 24 24 26 29 30 29 27 24 22 21 19 19 19 19 18 19 19 18 17
49 47 42 40 39 39 37 38 39 40 42 45 46 45 44 43 44 46 49 49 47 43 37 30 26 24 24 25 25 26 26 26 24 23 20 18 15 13 11 11 11 11 12 12 12 12 12 11 11 11 11 10 10 10 10 10 10 11 11 12 13 14 15 14 14 15 17 24 28 29 30 30 29 26 22 23 23 23 23 23 23 23 23 23 23 23 24 26 26 25 24 22 20 19 19 19 18 18 17 17 17 17 17
48 49 45 41 39 39 37 38 37 37 39 44 46 46 45 45 46 48 50 50 47 42 35 29 25 24 24 25 25 26 26 25 24 22 20 18 16 13 12 11 11 11 12 12 12 12 12 11 11 11 11 10 10 10 10 10 11 11 12 13 13 14 15 14 14 15 18 23 27 30 30 31 29 26 22 22 23 23 23 23 23 23 23 23 23 23 23 22 21 20 20 19 19 18 18 18 18 17 17 17 17 16 17
47 50 46 41 39 39 38 37 35 34 36 40 44 45 46 46 48 50 52 51 47 42 34 28 25 24 24 25 25 25 25 25 24 22 20 18 16 13 11 11 10 11 11 11 12 12 12 11 11 11 10 10 11 10 11 11 11 12 13 13 14 14 15 15 15 16 18 24 28 30 31 30 28 25 22 23 23 23 23 24 24 23 23 23 23 22 22 21 20 18 18 18 17 17 17 17 17 17 17 16 16 16 15
46 48 45 41 39 39 38 35 33 31 32 36 40 42 44 46 49 52 54 52 48 42 35 28 25 23 24 24 24 25 25 24 23 22 20 18 15 13 11 10 10 10 11 11 12 12 12 12 11 11 11 11 11 11 11 11 12 12 13 14 15 15 15 15 16 17 20 24 28 30 30 28 26 24 23 23 23 23 24 24 24 23 23 23 23 22 21 20 19 18 18 17 17 16 17 17 17 17 16 16 16 16 15
45 45 44 41 39 39 38 35 32 31 30 33 36 39 40 44 48 52 56 55 51 44 36 29 25 23 23 23 24 24 24 24 23 22 20 18 15 13 11 10 10 10 11 11 12 12 12 12 12 11 11 11 11 11 11 11 12 13 14 16 17 18 17 16 17 20 26 27 28 28 27 25 24 24 24 24 24 24 24 24 24 23 22 23 22 22 21 20 19 18 17 17 17 16 17 17 17 17 16 16 16 16 15
44 44 44 42 41 40 40 38 35 32 30 31 33 35 37 42 47 52 56 56 53 47 39 31 26 24 23 23 23 23 24 24 24 22 20 17 15 13 11 11 11 11 11 12 12 13 13 12 12 11 11 11 11 11 12 12 13 14 15 18 20 20 18 18 20 23 29 29 29 28 25 24 24 25 25 24 24 24 24 24 23 23 22 22 22 22 21 20 19 18 17 17 17 17 17 17 17 17 17 16 16 16 16
44 44 45 43 42 41 41 41 39 35 31 31 32 33 34 38 44 50 56 57 55 50 42 34 29 25 23 23 23 23 24 25 24 23 21 17 14 12 11 11 11 11 12 12 12 13 13 12 12 11 11 11 12 12 12 13 13 15 17 20 21 21 19 20 23 26 30 30 29 27 25 25 25 25 25 25 25 25 24 24 24 23 23 22 22 22 21 20 19 18 18 17 17 17 17 17 18 18 17 17 17 16 16
44 45 46 44 43 43 42 42 40 37 34 33 32 32 32 35 41 48 54 56 55 51 45 37 31 27 24 23 23 23 24 25 24 23 20 17 14 12 11 11 11 12 12 12 13 13 13 12 12 12 12 12 12 13 13 13 14 16 18 21 22 23 22 23 25 27 29 29 28 26 25 25 26 26 27 27 26 26 25 25 24 24 23 23 22 22 21 21 20 19 18 17 17 17 18 18 18 18 18 18 18 17 17
45 46 47 46 45 44 43 42 40 38 36 34 33 33 32 33 38 45 52 55 55 52 46 40 34 30 26 24 23 23 24 24 24 22 20 17 14 12 12 12 12 12 13 13 13 13 13 13 13 13 13 13 13 13 14 14 15 17 19 21 24 26 26 25 25 26 27 27 26 26 26 26 27 27 28 28 27 27 26 26 25 24 24 23 23 22 22 21 20 19 18 18 18 18 18 19 19 19 19 18 18 18 18
46 46 48 48 46 45 44 42 39 38 37 36 35 34 32 33 37 43 50 53 53 51 47 42 37 33 28 26 24 23 24 24 23 22 19 16 14 13 12 12 12 13 13 13 14 14 14 14 13 13 14 14 14 14 15 15 16 17 20 22 24 27 27 27 28 28 28 27 26 27 27 27 28 28 29 29 28 28 28 27 26 26 25 25 24 23 23 22 21 20 19 18 18 18 19 19 19 19 19 19 19 19 19
47 47 50 49 48 46 45 43 40 38 37 36 36 36 34 34 37 41 46 49 50 49 47 44 40 36 32 28 26 24 24 23 22 20 18 16 14 12 12 13 13 14 14 14 15 15 15 14 14 14 14 14 15 15 15 16 17 18 20 21 24 26 28 30 31 31 31 29 29 30 29 29 29 29 29 30 30 29 29 29 28 27 27 26 25 25 24 23 22 21 20 19 19 19 20 20 20 20 20 20 20 20 21
48 48 50 51 49 47 46 44 41 39 37 37 37 37 36 36 37 40 43 45 46 45 44 42 41 38 35 32 29 27 25 23 21 19 17 15 14 13 12 13 14 15 15 15 15 15 15 15 15 15 15 15 16 16 16 17 18 19 20 21 23 25 29 31 32 32 33 33 33 33 33 31 30 30 30 31 31 31 31 30 29 29 29 28 27 26 25 24 23 23 22 21 20 20 20 21 21 21 21 21 21 21 22
50 49 51 52 51 49 47 46 43 40 38 37 38 38 38 38 39 40 42 42 41 40 39 39 39 39 38 35 33 30 27 24 21 19 16 15 13 13 13 13 14 15 16 16 16 16 16 16 16 15 16 16 17 17 17 18 19 20 21 22 24 26 30 31 32 33 33 34 34 34 35 33 32 31 31 31 31 31 32 31 31 31 30 30 29 29 28 27 26 25 24 23 22 22 21 21 21 21 21 22 22 22 23
51 51 52 53 52 50 48 46 44 41 38 38 38 39 39 40 41 42 43 42 40 37 35 34 35 36 37 36 35 32 29 26 22 19 16 14 13 13 13 14 14 16 16 16 16 16 17 16 16 16 17 17 18 18 19 19 20 21 22 25 27 29 30 30 32 34 35 35 36 35 36 35 34 33 32 32 32 32 32 32 32 32 31 32 31 31 30 29 29 28 27 26 25 24 23 22 22 22 22 22 22 23 24
52 52 53 54 53 52 50 48 45 42 40 39 39 39 40 41 43 44 45 44 42 38 34 31 30 31 33 34 34 33 30 27 23 19 16 14 13 12 13 14 15 16 17 17 17 17 18 17 17 17 17 18 19 20 20 20 20 22 24 27 29 30 30 30 31 33 34 35 36 36 36 36 35 35 34 33 33 33 32 32 32 33 32 33 33 33 33 32 32 31 30 29 28 26 25 24 24 23 23 23 23 24 25
53 53 53 54 54 53 52 50 47 44 42 41 40 40 40 42 43 45 47 47 45 42 37 32 29 27 28 29 30 30 29 26 23 20 16 14 13 13 13 14 15 16 17 18 18 18 19 18 18 18 18 19 20 21 22 21 21 22 24 27 29 29 29 30 32 33 35 35 36 36 37 37 37 37 37 36 35 34 33 32 32 33 33 34 34 34 35 34 34 33 33 32 31 29 28 27 26 25 24 24 25 25 26
53 53 54 55 55 54 53 51 49 47 44 42 41 41 41 42 43 45 47 48 47 45 41 35 30 27 25 26 27 27 27 25 23 20 17 15 14 13 14 15 16 17 18 18 19 19 19 19 19 19 19 19 20 22 23 23 22 22 23 27 29 31 30 31 32 34 36 36 35 35 36 38 39 39 40 39 38 37 36 35 34 34 34 34 34 35 35 35 35 35 34 34 33 32 31 29 28 27 26 26 26 27 28
53 53 53 54 54 54 54 53 51 49 46 44 43 42 41 42 43 44 46 47 48 46 43 38 33 29 26 25 24 24 25 24 22 19 17 15 15 15 15 16 17 18 18 18 19 20 20 20 20 20 20 20 21 22 23 25 25 26 26 27 29 31 33 32 32 34 36 37 37 37 36 37 38 39 41 41 41 41 40 39 39 37 36 35 34 34 35 35 34 34 34 34 34 33 33 32 30 29 28 28 28 29 29
53 53 53 53 54 54 54 54 52 50 48 46 44 43 42 42 43 44 45 47 47 46 44 40 36 32 29 27 25 24 24 23 21 20 18 16 16 16 17 17 18 18 18 19 19 20 20 20 21 21 21 21 21 22 23 25 29 31 32 32 32 33 35 35 34 34 35 38 39 40 40 40 41 41 43 42 42 43 44 44 43 42 40 38 36 35 35 34 34 33 33 33 33 33 33 33 32 31 29 29 29 30 31
53 52 51 52 54 54 54 54 53 52 49 47 45 44 43 43 43 44 45 46 47 46 43 41 38 36 32 29 27 25 24 23 21 20 19 18 18 18 19 19 19 19 19 19 19 20 20 20 21 22 22 22 22 23 23 25 28 32 35 36 36 36 36 37 37 36 35 36 38 40 42 42 43 44 45 44 43 44 45 46 46 45 43 42 40 38 37 36 35 34 33 32 32 33 33 33 32 32 31 30 30 31 32
53 52 51 52 53 54 54 54 54 53 51 48 46 45 44 43 43 44 44 46 46 45 43 41 39 37 35 32 29 27 25 23 21 20 20 20 20 21 21 21 21 21 21 20 20 20 20 21 22 22 23 23 23 24 24 25 27 30 34 36 37 37 38 38 38 38 38 37 38 40 41 42 43 43 44 44 44 44 45 46 46 45 44 44 43 42 42 40 38 36 33 32 32 32 33 33 32 32 31 31 32 32 33
54 52 51 52 53 54 55 55 54 54 52 50 48 46 45 44 44 44 45 46 46 45 43 41 39 38 36 34 32 29 27 24 22 21 21 21 22 24 24 24 24 23 23 22 22 21 21 22 23 23 24 24 25 25 26 26 26 27 29 32 35 37 39 39 40 40 40 40 41 42 43 44 44 44 45 45 46 46 46 46 45 44 44 44 45 46 46 44 41 38 35 33 32 32 32 32 33 33 32 33 33 34 35
55 54 52 52 53 55 56 55 55 55 54 51 49 47 46 45 45 45 45 46 46 46 43 40 38 37 36 35 34 32 30 27 25 23 22 23 24 26 27 28 27 27 26 25 24 23 23 23 24 25 26 26 27 27 27 27 27 27 28 29 30 33 38 41 42 42 42 42 44 45 47 48 49 49 48 49 50 49 48 48 47 46 45 46 46 46 47 46 44 41 38 35 33 32 32 33 33 33 34 34 34 35 36
56 56 54 54 54 55 56 56 56 56 55 53 51 49 48 47 46 45 46 46 47 46 44 41 38 36 35 35 35 34 33 30 28 26 24 24 26 27 29 30 31 30 29 28 27 27 26 26 26 27 27 28 29 29 29 29 28 28 28 29 30 32 34 38 41 42 41 44 47 49 50 51 53 53 52 55 55 53 50 50 50 49 48 49 49 48 48 48 47 45 43 39 36 34 33 33 34 34 35 35 36 37 37
57 58 56 55 56 57 57 57 57 56 55 54 52 51 49 48 47 46 46 47 47 46 44 41 38 35 34 34 35 35 35 34 32 29 27 27 27 29 31 33 33 34 33 32 31 30 29 29 28 29 29 30 30 30 31 30 29 29 29 30 31 32 34 38 40 41 42 45 48 50 51 52 53 54 55 56 57 55 53 54 54 54 53 53 52 51 49 49 49 48 47 44 40 37 35 35 35 36 37 37 38 39 39
58 60 58 57 57 58 58 58 58 58 56 54 53 52 51 50 48 47 46 47 47 46 44 41 37 35 33 33 34 36 37 37 36 34 32 31 30 31 33 34 36 36 36 35 34 34 32 31 31 31 31 31 31 32 32 32 31 31 31 31 32 33 35 39 44 47 48 46 48 50 51 52 53 53 52 55 57 56 54 57 57 57 57 57 56 54 52 51 51 51 52 48 45 41 38 36 36 37 38 39 41 42 42
58 60 60 58 58 59 59 60 60 59 57 55 54 53 52 51 49 48 46 47 46 45 44 41 38 35 33 33 34 36 38 39 39 38 37 35 34 34 35 37 38 38 38 38 37 36 35 34 33 33 33 32 33 33 34 34 33 33 32 33 33 33 34 37 41 45 48 48 48 48 50 52 53 52 49 54 56 56 55 58 60 60 59 60 59 58 56 56 55 54 53 52 49 45 42 39 39 39 39 41 42 44 44
58 60 62 59 59 59 61 61 61 60 57 56 54 53 52 51 50 48 47 47 46 46 44 42 39 37 35 34 34 35 37 38 39 40 40 39 38 38 38 39 40 41 40 40 39 39 38 36 35 35 34 34 34 35 35 35 35 35 34 34 34 35 35 35 37 39 44 47 48 47 47 50 50 50 48 52 54 55 56 57 59 61 61 60 60 60 59 59 59 58 55 53 51 49 45 42 41 40 41 42 44 46 46
61 63 64 61 60 60 62 62 61 60 58 57 55 54 53 52 50 49 47 47 46 46 45 43 41 39 37 36 35 35 36 37 39 39 40 41 41 41 41 42 42 42 42 41 41 40 40 38 37 37 36 36 36 36 37 37 37 37 36 36 36 36 36 36 36 37 38 42 45 46 47 48 47 46 46 51 53 55 56 57 59 61 60 60 61 61 59 59 59 59 58 55 54 52 49 46 43 42 43 44 45 47 48
68 69 68 64 62 62 62 63 62 61 59 58 56 54 53 51 50 49 47 47 47 47 46 44 42 40 38 37 36 36 36 37 38 39 40 41 42 42 43 44 44 44 44 43 43 42 41 40 39 39 39 38 38 38 39 39 39 38 38 38 38 37 37 37 37 38 38 39 40 42 44 45 45 45 45 50 53 55 56 57 58 59 58 59 60 60 59 58 58 59 59 56 56 55 52 48 45 44 44 46 47 49 50
74 76 72 67 64 63 64 64 62 61 59 58 57 55 53 52 50 49 48 48 48 47 47 45 43 41 39 38 37 37 37 38 38 39 40 41 42 43 45 46 46 46 45 44 44 44 43 42 42 41 41 41 41 40 40 40 40 40 40 40 40 39 39 39 39 39 39 39 39 39 40 42 43 44 45 49 53 55 56 57 57 57 56 57 58 59 58 58 58 58 58 57 58 58 56 51 48 46 46 47 49 50 52
74 74 72 70 68 66 66 64 62 61 60 59 57 55 53 52 51 49 48 48 48 48 47 46 44 42 39 38 38 37 37 38 39 40 41 42 43 45 46 47 47 47 46 45 45 45 44 44 43 43 43 43 43 43 42 42 42 42 42 42 42 42 42 41 41 40 40 40 39 39 40 41 43 44 46 49 52 55 57 57 57 57 56 56 57 58 58 57 57 58 59 58 59 61 60 55 51 48 48 49 50 52 53
70 68 71 73 73 71 67 65 63 61 59 59 57 56 53 52 51 50 49 49 49 49 48 46 44 42 40 39 38 38 38 39 39 40 41 42 44 45 46 47 47 47 47 46 46 45 45 45 45 45 45 45 44 44 44 44 43 43 44 44 44 44 44 44 43 43 43 42 41 41 42 43 44 46 47 49 52 54 56 57 58 58 58 57 57 58 57 57 57 58 60 61 61 62 62 58 54 52 51 52 52 53 54
66 65 69 76 78 75 70 67 64 61 59 58 57 56 54 52 50 49 49 49 49 49 48 47 45 44 42 40 39 39 39 39 40 40 41 42 43 44 45 46 46 46 46 46 46 46 46 46 46 46 46 46 45 45 45 45 44 44 45 45 45 45 46 46 45 45 45 44 44 44 44 45 46 48 49 50 52 53 54 55 56 58 59 59 59 59 59 59 58 59 61 63 64 64 63 60 57 56 56 56 56 56 56
67 64 66 76 80 79 73 69 65 62 59 58 57 56 54 52 50 49 49 49 50 50 49 47 46 45 44 42 41 40 40 40 40 40 41 41 42 43 44 44 45 45 45 45 45 46 46 46 46 47 47 46 46 46 46 45 45 45 45 45 46 46 47 47 47 47 47 47 47 47 47 48 49 50 51 52 52 53 53 53 54 56 57 58 59 59 60 60 61 61 63 65 66 66 65 62 60 59 59 59 60 60 59
70 66 66 74 79 80 77 72 67 63 59 58 57 55 53 51 50 49 49 49 50 50 49 48 46 45 44 43 42 41 41 40 40 41 41 41 41 42 42 43 43 43 44 44 45 45 46 46 47 47 47 47 47 47 47 47 46 46 46 46 46 47 47 48 49 49 49 49 49 49 50 50 51 51 52 52 53 53 53 54 54 54 55 56 56 58 61 62 63 65 66 67 68 68 66 64 62 61 61 62 63 64 62
72 69 67 72 77 80 79 74 69 65 60 58 56 55 53 51 50 50 49 49 50 50 50 48 47 45 44 43 42 42 41 41 41 41 41 41 41 41 42 42 43 43 43 43 44 44 45 46 47 48 48 49 49 49 48 48 48 47 47 47 47 48 48 49 50 50 51 51 51 52 52 52 52 52 52 53 53 54 54 55 55 55 55 55 55 56 59 62 65 67 68 68 68 68 67 66 64 63 62 64 66 67 65
75 74 72 73 76 79 79 75 71 67 62 59 56 54 52 51 50 49 49 49 50 50 50 48 47 45 45 44 43 43 42 42 42 42 42 42 41 41 41 42 42 42 43 43 43 44 45 47 48 49 50 50 50 50 50 50 50 49 49 48 48 49 50 50 51 51 52 53 53 54 54 54 54 53 53 53 54 55 55 56 56 56 55 55 55 56 58 62 66 68 69 68 68 68 67 66 65 64 64 65 68 69 67
76 79 80 79 79 79 77 75 73 69 64 60 57 54 52 51 50 49 49 49 50 50 50 49 47 46 45 44 44 43 43 43 43 43 43 43 43 43 42 42 42 43 43 43 44 45 46 47 49 50 51 51 51 52 52 51 51 51 50 50 50 50 51 51 52 52 53 54 55 55 56 56 55 55 54 55 55 56 56 56 56 56 55 56 56 58 60 63 65 67 68 68 67 67 67 67 66 66 65 67 69 70 68
76 81 85 87 86 83 77 76 75 72 67 61 57 54 52 50 49 48 48 49 49 50 50 49 48 47 45 45 45 44 45 45 45 45 45 46 46 45 45 44 44 45 45 45 45 46 47 48 49 50 51 52 52 52 52 52 52 52 52 52 51 51 51 52 52 53 54 55 56 56 57 57 56 56 56 56 56 57 57 56 56 56 55 56 57 59 61 63 64 66 67 67 67 67 67 67 67 66 66 68 70 71 70
74 80 86 89 89 87 81 80 78 75 70 63 58 54 52 50 49 48 48 49 50 51 51 50 49 48 47 46 45 46 46 46 47 47 47 48 48 48 48 48 47 47 47 47 47 48 48 49 50 51 51 52 52 52 52 52 53 53 53 53 53 53 53 52 53 53 54 55 56 57 57 57 57 57 58 58 58 57 57 57 56 55 55 56 57 60 62 63 64 64 65 66 67 68 68 67 67 67 67 69 71 72 71
71 76 84 89 90 88 85 83 81 78 73 65 59 55 53 51 50 49 49 49 50 51 51 51 50 49 48 47 47 47 47 48 49 49 49 50 50 51 51 51 50 49 49 49 49 49 50 50 50 51 51 52 52 52 52 52 53 53 53 54 54 54 54 54 53 54 54 55 56 57 57 57 58 58 59 59 59 58 58 57 56 56 56 57 59 60 62 63 63 63 64 65 66 67 69 68 67 67 68 70 72 73 72
70 75 81 87 89 89 88 86 84 81 76 68 61 56 54 52 51 50 50 50 51 51 51 51 50 50 49 49 48 48 48 49 50 50 51 52 53 53 53 53 53 52 51 51 50 51 51 51 51 51 51 52 52 52 52 52 53 53 53 54 55 55 55 55 55 55 55 55 56 57 57 58 58 58 59 59 59 58 58 58 57 57 58 59 60 62 64 63 63 63 64 64 65 66 68 68 68 68 69 71 73 74 73
70 76 80 86 89 89 89 88 85 82 79 72 64 58 54 53 52 51 51 51 51 51 51 51 50 50 50 50 49 49 49 50 51 52 53 54 54 54 55 55 54 53 52 52 52 52 52 52 52 52 52 52 52 52 52 52 52 53 53 54 55 55 55 55 55 55 55 56 56 56 57 57 57 58 58 58 58 58 58 59 59 59 59 61 63 64 65 65 64 64 64 64 65 65 66 67 68 69 70 72 74 74 73
72 79 83 87 89 90 89 87 85 83 81 76 68 61 56 54 52 52 52 51 51 51 51 51 50 50 50 50 50 50 50 51 52 53 56 54 53 53 54 55 54 54 54 53 53 53 53 53 53 53 52 52 52 52 52 52 53 53 53 54 54 54 54 55 55 55 56 56 56 56 56 56 57 57 57 57 57 58 59 60 60 61 61 63 65 66 66 66 65 65 65 64 64 64 65 65 67 69 71 73 75 75 73
71 78 82 86 88 89 89 85 83 83 84 80 73 66 59 55 53 52 51 51 51 51 51 51 51 51 51 51 51 51 51 51 52 53 55 54 54 53 54 55 56 56 56 56 55 54 53 54 53 53 53 53 52 52 52 52 53 53 53 54 54 54 54 54 55 55 55 55 55 55 55 55 56 56 56 57 57 58 59 60 61 62 63 65 67 68 68 67 67 66 65 65 64 64 64 64 66 68 72 74 75 75 74
69 73 78 85 86 85 87 84 83 83 85 84 79 72 64 59 55 53 51 51 51 51 52 52 52 52 53 53 53 53 52 52 53 54 55 55 56 57 58 58 58 57 56 57 58 56 54 54 54 53 52 52 52 52 52 52 53 53 53 54 54 54 54 54 55 55 55 56 55 55 55 55 55 55 56 56 58 59 60 61 62 63 65 67 69 69 69 69 68 67 66 65 64 64 64 64 66 68 72 75 76 76 74
67 70 75 82 85 86 89 84 83 84 86 86 83 79 71 64 59 55 52 51 51 52 53 53 53 55 57 57 56 54 53 54 55 56 57 57 58 59 61 60 57 55 55 58 60 59 56 54 54 53 52 52 52 52 51 52 52 53 53 54 54 54 55 55 55 56 56 55 55 54 54 54 54 55 56 57 58 59 61 61 62 63 66 69 70 71 70 70 70 69 68 66 65 64 64 65 67 69 72 73 75 75 75
66 68 72 78 83 86 86 81 82 85 84 84 85 84 77 71 64 59 54 52 51 52 53 54 55 57 60 60 58 55 55 55 56 57 58 58 58 57 59 59 58 57 57 59 60 60 57 54 54 54 53 53 52 52 52 52 52 52 53 54 54 55 55 56 56 56 56 55 55 55 54 54 54 55 55 56 58 59 60 61 62 63 66 69 71 71 71 72 71 70 69 67 66 65 65 66 68 70 72 73 73 74 75
66 67 71 75 79 80 77 78 81 85 86 85 87 87 83 78 71 64 56 53 52 52 53 55 56 59 64 63 60 56 56 56 56 57 58 58 57 56 56 57 57 57 57 61 62 61 57 55 55 56 55 53 53 53 52 52 52 53 53 54 54 55 56 56 56 57 56 55 55 55 55 55 55 55 55 56 58 59 61 61 62 64 67 69 71 71 72 72 72 71 70 68 67 66 66 68 69 71 72 73 73 74 74
66 68 72 79 83 83 79 80 83 87 89 88 89 88 86 82 77 69 61 55 53 53 54 55 57 60 67 65 61 57 55 56 56 56 56 57 57 57 57 56 55 54 56 61 62 60 58 56 56 56 55 54 54 54 53 53 53 54 54 54 55 55 55 56 56 57 56 56 56 56 55 55 55 56 56 56 58 59 61 62 64 66 68 69 70 71 71 72 72 72 71 70 69 68 68 70 71 72 73 74 74 74 74
69 70 76 85 88 88 88 88 89 90 90 89 88 86 85 84 81 75 66 58 53 52 54 55 59 64 70 67 63 59 57 56 55 55 55 56 56 56 57 57 55 54 55 59 60 60 59 57 55 55 55 55 55 54 54 55 55 55 54 54 54 55 55 56 56 57 57 57 57 57 57 57 57 56 56 57 58 59 61 63 65 66 67 68 69 70 71 72 72 73 73 72 71 70 70 71 72 73 74 75 76 76 76
72 74 80 85 88 89 89 89 88 89 89 88 85 82 83 85 84 79 71 60 55 54 55 58 63 69 72 67 64 61 59 56 55 55 56 57 57 57 57 57 57 57 57 60 61 61 60 58 56 55 56 57 57 56 56 56 57 56 56 55 55 55 55 56 56 57 57 57 58 58 58 57 57 56 56 57 58 60 62 64 65 66 67 68 69 70 71 72 72 73 74 74 73 73 73 73 73 74 76 77 77 77 78
76 78 84 86 88 89 89 88 87 86 88 87 84 82 83 86 86 82 75 65 60 59 60 62 68 72 72 67 64 62 61 58 57 57 57 58 58 58 58 59 59 59 59 61 61 61 60 58 57 57 58 59 60 60 59 59 59 58 58 57 56 56 56 56 56 57 57 58 58 58 58 58 57 56 56 58 59 61 63 65 66 66 67 67 69 70 71 72 73 74 74 75 75 75 75 75 75 76 77 78 79 79 79
79 85 90 91 91 90 89 87 86 87 87 87 85 84 82 84 86 85 80 73 68 66 65 68 72 74 71 67 64 62 62 61 60 59 58 59 59 59 60 61 62 62 62 61 61 60 59 58 58 58 60 61 63 63 63 62 62 61 60 59 58 57 56 56 56 56 57 57 58 58 58 58 57 57 57 59 60 62 65 66 66 66 66 67 69 70 72 73 74 75 75 77 77 78 78 77 77 77 78 79 80 80 81